Location: Dobroszyce
(51.2646°N, 17.3392°E)
Time: 23:59:02
(UTC+01:00)

ISS - Visible Passes

Search period start: 23 January 2019 00:00
Search period end: 02 February 2019 00:00
Orbit: 404 x 410 km, 51.6° (Epoch: 24 January)

Date Brightness Start Highest point End Pass type
(mag) Time Alt. Az. Time Alt. Az. Time Alt. Az.
23 Jan -1.6 18:39:49 10° SSW 18:41:05 17° S 18:41:05 17° S visible
24 Jan -1.7 17:49:22 10° S 17:51:19 15° SE 17:52:04 14° SE visible
24 Jan -0.9 19:24:06 10° WSW 19:24:47 15° SW 19:24:47 15° SW visible
25 Jan -2.9 18:32:56 10° SW 18:35:41 37° S 18:35:41 37° S visible
26 Jan -2.4 17:41:57 10° SSW 17:44:47 27° SSE 17:46:30 17° ESE visible
26 Jan -1.5 19:17:45 10° WSW 19:19:14 24° WSW 19:19:14 24° WSW visible
27 Jan -3.8 18:26:25 10° WSW 18:29:41 63° SSE 18:30:00 59° SE visible
28 Jan -3.2 17:35:10 10° SW 17:38:20 45° SSE 17:40:43 16° E visible
28 Jan -2.0 19:11:28 10° W 19:13:26 33° W 19:13:26 33° W visible
29 Jan -3.9 18:20:02 10° WSW 18:23:21 87° S 18:24:07 50° E visible
29 Jan -0.3 19:56:37 10° W 19:56:50 11° W 19:56:50 11° W visible
30 Jan -3.7 17:28:38 10° WSW 17:31:56 71° SSE 17:34:47 13° E visible
30 Jan -2.6 19:05:10 10° W 19:07:30 42° W 19:07:30 42° W visible
31 Jan -3.9 18:13:42 10° W 18:17:01 82° N 18:18:09 38° E visible
31 Jan -0.6 19:50:17 10° W 19:50:52 14° W 19:50:52 14° W visible
01 Feb -3.8 17:22:14 10° W 17:25:33 88° N 17:28:49 10° E visible
01 Feb -3.2 18:58:49 10° W 19:01:32 56° W 19:01:32 56° W visible
